Date String (YYYY-MM-DD hh:mm:ss) UTC,Instrument flags,Ambient pressure (hPa),Sample flow (lpm),Bypass flow (lpm),Sample temperature (°C),Ambient temperature (°C),ASC tube jacket temperature (°C),LED temperature (°C),Box temperature (°C),Sample RH (%),Span deviation,Mass concentration (μg/m³),Mass concentration (μg/m³),Mass concentration (μg/m³)
DateTimeUTC,F1_M11,P_M11,Q1_M11,Q2_M11,T1_M11,T2_M11,T3_M11,T4_M11,T5_M11,U1_M11,ZSPAN_M11,X0_M11,X2_M11,X1_M11
2021-09-19 19:00:00,,0821.8,5.00,0.00,29.2,28.2,00.0,38.1,31.1,16.2,0001.1,0013.17,0008.06,0007.46
2021-09-19 19:01:00,,0821.8,4.99,0.00,29.2,26.8,00.0,38.1,30.7,16.0,0001.0,0014.69,0008.52,0007.86
2021-09-19 19:02:00,,0821.8,5.00,0.00,29.0,25.7,00.0,38.1,30.3,16.0,0001.1,0015.25,0008.97,0008.28
2021-09-19 19:03:00,,0821.8,5.01,0.00,28.9,26.0,00.0,38.1,30.4,16.1,0001.5,0015.64,0009.39,0008.69
2021-09-19 19:04:00,,0821.8,5.00,0.00,28.9,26.5,00.0,38.1,30.6,16.2,0001.3,0016.20,0009.84,0009.14
2021-09-19 19:05:00,,0821.8,5.01,0.00,28.9,26.9,00.0,38.0,30.6,16.2,0001.1,0016.57,0010.30,0009.62
2021-09-19 19:06:00,,0821.8,4.99,0.00,29.0,27.2,00.0,38.0,30.7,16.3,0001.1,0017.05,0010.72,0010.07
2021-09-19 19:07:00,,0821.8,5.00,0.00,29.0,27.6,00.0,38.0,30.8,16.2,0001.0,0017.79,0011.14,0010.49
2021-09-19 19:08:00,,0821.9,5.02,0.00,29.1,27.9,00.0,38.0,30.9,16.2,0001.0,0018.68,0011.60,0010.93
2021-09-19 19:09:00,,0821.7,5.00,0.00,29.1,28.1,00.0,38.1,31.0,16.3,0001.2,0018.79,0011.94,0011.30
2021-09-19 19:10:00,,0821.8,4.99,0.00,29.2,28.3,00.0,38.1,31.1,15.7,0001.3,0018.85,0012.02,0011.39
2021-09-19 19:11:00,,0821.8,5.01,0.00,29.2,28.0,00.0,38.1,31.0,15.4,0001.4,0018.71,0011.92,0011.31
2021-09-19 19:12:00,,0821.8,4.99,0.00,29.1,26.2,00.0,38.1,30.6,15.8,0001.4,0018.13,0011.85,0011.27
2021-09-19 19:13:00,,0821.8,5.00,0.00,29.0,25.7,00.0,38.1,30.4,16.1,0001.3,0018.29,0011.76,0011.21
2021-09-19 19:14:00,,0821.7,5.01,0.00,29.0,26.1,00.0,38.1,30.5,16.1,0001.0,0018.18,0011.68,0011.15
2021-09-19 19:15:00,,0821.8,5.01,0.00,28.9,26.5,00.0,38.0,30.6,16.2,0001.0,0018.09,0011.65,0011.13
2021-09-19 19:16:00,,0821.7,4.98,0.00,29.0,27.0,00.0,38.0,30.7,16.2,0001.1,0018.12,0011.66,0011.12
2021-09-19 19:17:00,,0821.7,5.02,0.00,29.0,27.4,00.0,38.0,30.8,16.3,0001.4,0017.98,0011.65,0011.10
2021-09-19 19:18:00,,0821.6,5.00,0.00,29.0,27.7,00.0,38.0,30.9,16.1,0001.6,0017.82,0011.66,0011.11
2021-09-19 19:19:00,,0821.5,5.00,0.00,29.1,28.0,00.0,38.1,31.0,16.1,0001.6,0017.60,0011.77,0011.22
2021-09-19 19:20:00,,0821.6,5.01,0.00,29.2,28.2,00.0,38.1,31.0,16.0,0001.3,0017.62,0011.88,0011.34
2021-09-19 19:21:00,,0821.5,5.00,0.00,29.1,27.2,00.0,38.1,30.8,16.0,0001.4,0017.97,0012.16,0011.62
2021-09-19 19:22:00,,0821.5,4.98,0.00,29.0,25.7,00.0,38.1,30.3,16.1,0001.2,0018.56,0012.62,0012.08
2021-09-19 19:23:00,,0821.5,5.01,0.00,28.9,25.8,00.0,38.1,30.3,16.1,0001.3,0018.73,0013.00,0012.43
2021-09-19 19:24:00,,0821.4,5.00,0.00,28.9,26.3,00.0,38.0,30.5,16.1,0001.3,0019.29,0013.38,0012.80
2021-09-19 19:25:00,,0821.5,5.00,0.00,28.9,26.7,00.0,38.0,30.5,16.2,0001.3,0019.76,0013.73,0013.14
2021-09-19 19:26:00,,0821.4,5.00,0.00,28.9,27.1,00.0,38.0,30.7,16.1,0001.4,0020.06,0013.92,0013.31
2021-09-19 19:27:00,,0821.4,5.00,0.00,28.9,27.5,00.0,38.0,30.7,16.2,0001.5,0020.31,0014.13,0013.48
2021-09-19 19:28:00,,0821.4,4.98,0.00,29.0,27.8,00.0,38.0,30.9,16.2,0001.3,0020.40,0014.34,0013.70
2021-09-19 19:29:00,,0821.4,5.01,0.00,29.1,28.1,00.0,38.0,30.9,16.1,0001.1,0020.43,0014.50,0013.89
2021-09-19 19:30:00,,0821.2,5.00,0.00,29.1,28.3,00.0,38.1,31.0,15.9,0001.1,0020.67,0014.55,0013.97
2021-09-19 19:31:00,,0821.1,5.01,0.00,29.2,27.5,00.0,38.1,30.9,16.0,0001.0,0020.76,0014.61,0014.04
2021-09-19 19:32:00,,0821.4,4.99,0.00,29.0,25.8,00.0,38.1,30.4,16.1,0001.0,0021.11,0014.62,0014.01
2021-09-19 19:33:00,,0821.4,5.01,0.00,28.9,25.8,00.0,38.0,30.4,16.0,0000.9,0021.06,0014.54,0013.90
2021-09-19 19:34:00,,0821.4,4.99,0.00,28.9,26.2,00.0,38.0,30.5,15.8,0000.9,0020.67,0014.37,0013.76
2021-09-19 19:35:00,,0821.4,5.00,0.00,28.9,26.7,00.0,38.0,30.6,15.9,0000.8,0020.08,0014.25,0013.63
2021-09-19 19:36:00,,0821.4,4.99,0.00,28.9,27.1,00.0,38.0,30.7,15.9,0000.6,0020.00,0014.19,0013.56
2021-09-19 19:37:00,,0821.4,5.01,0.00,29.0,27.5,00.0,38.0,30.8,15.9,0000.5,0020.21,0014.19,0013.55
2021-09-19 19:38:00,,0821.4,4.99,0.00,29.0,27.8,00.0,38.0,30.9,15.9,0000.6,0020.47,0014.14,0013.53
2021-09-19 19:39:00,,0821.4,5.00,0.00,29.1,28.1,00.0,38.0,31.0,15.8,0000.7,0020.78,0014.08,0013.48
2021-09-19 19:40:00,,0821.4,5.01,0.00,29.2,28.2,00.0,38.1,31.0,15.4,0000.8,0020.82,0014.08,0013.49
2021-09-19 19:41:00,,0821.4,5.00,0.00,29.1,26.7,00.0,38.1,30.6,15.6,0000.6,0020.66,0014.09,0013.47
2021-09-19 19:42:00,,0821.4,5.00,0.00,28.9,25.6,00.0,38.0,30.3,15.8,0000.7,0020.58,0014.07,0013.45
2021-09-19 19:43:00,,0821.4,4.99,0.00,28.9,25.9,00.0,38.0,30.4,15.8,0000.6,0020.28,0014.08,0013.46
2021-09-19 19:44:00,,0821.3,5.00,0.00,28.9,26.4,00.0,38.0,30.5,15.8,0000.7,0020.23,0014.12,0013.52
2021-09-19 19:45:00,,0821.3,5.00,0.00,28.9,26.8,00.0,38.0,30.6,16.0,0000.7,0020.38,0014.25,0013.64
2021-09-19 19:46:00,,0821.2,4.98,0.00,28.9,27.2,00.0,38.0,30.7,15.9,0000.8,0020.41,0014.31,0013.74
2021-09-19 19:47:00,,0821.2,5.01,0.00,29.0,27.6,00.0,38.0,30.8,15.8,0000.9,0020.44,0014.38,0013.83
2021-09-19 19:48:00,,0821.1,4.99,0.00,29.0,27.9,00.0,38.0,30.9,15.6,0000.6,0020.33,0014.47,0013.95
2021-09-19 19:49:00,,0821.1,5.01,0.00,29.1,28.1,00.0,38.0,31.0,15.8,0000.5,0020.37,0014.54,0014.05
2021-09-19 19:50:00,,0821.1,5.00,0.00,29.2,28.3,00.0,38.0,31.1,15.6,0000.6,0020.11,0014.62,0014.11
2021-09-19 19:51:00,,0821.0,5.00,0.00,29.2,28.0,00.0,38.1,31.0,15.7,0000.6,0020.13,0014.66,0014.14
2021-09-19 19:52:00,,0821.0,5.00,0.00,29.1,26.2,00.0,38.1,30.6,15.3,0000.9,0020.26,0014.73,0014.21
2021-09-19 19:53:00,,0820.9,5.00,0.00,29.0,25.7,00.0,38.1,30.4,15.3,0000.9,0020.39,0014.83,0014.30
2021-09-19 19:54:00,,0820.9,4.99,0.00,28.9,26.1,00.0,38.0,30.5,15.3,0000.8,0020.81,0014.88,0014.38
2021-09-19 19:55:00,,0820.9,5.00,0.00,28.9,26.6,00.0,38.0,30.6,15.5,0000.7,0021.57,0014.93,0014.46
2021-09-19 19:56:00,,0820.9,5.00,0.00,28.9,27.0,00.0,38.0,30.7,15.5,0000.8,0021.63,0014.94,0014.47
2021-09-19 19:57:00,,0821.0,5.00,0.00,29.0,27.4,00.0,38.0,30.8,15.5,0000.9,0021.68,0014.97,0014.49
2021-09-19 19:58:00,,0820.9,5.01,0.00,29.0,27.7,00.0,38.0,30.9,15.7,0001.1,0021.59,0014.92,0014.47
2021-09-19 19:59:00,,0820.9,4.99,0.00,29.1,28.0,00.0,38.0,31.0,15.6,0001.3,0021.51,0014.83,0014.36
